FOX-1A (AO-85)

Last updated on Sun Jun 21 2026 00:03:20 GMT+0000 (Coordinated Universal Time)

1 40967U 15058D 26171.43798106 .00001657 00000+0 15762-3 0 9992 2 40967 64.7745 268.8811 0130605 55.3496 305.9846 14.90981421114057
UTC large
Height (km)
Speed (km/s)
/
Latitude / Longitude
Inclination (degrees)
Orbital Period (minutes)
Azimuth
Elevation
Range (km)
Doppler Factor

Next 0 passes for location: London (51.5072 / 0.1276)

No passes found over London.
FOX-1A (AO-85)